Wind_Speed
40 40 40 39 39 39 39 39 39 40 40 40 40 39 39 38 38 38 38 38 38 37 37 37 38 38 38 39 38 38 39 39 39 39 40 41 42 42 41 41 41 42 44
40 40 40 40 40 39 39 39 39 39 40 40 40 40 39 39 39 38 38 39 39 39 39 39 38 38 38 38 38 38 38 39 39 40 40 40 41 43 43 43 42 43 43
40 40 40 40 40 40 40 40 39 39 39 39 39 39 39 39 39 39 39 40 40 40 40 39 38 37 37 37 37 37 37 38 38 39 39 40 40 41 42 42 42 42 43
41 41 41 41 41 41 41 40 40 40 39 39 38 38 38 38 38 38 39 39 39 40 39 38 37 37 37 37 38 38 37 37 38 39 39 39 40 40 41 41 41 42 43
41 41 42 42 42 41 41 41 41 40 39 39 38 38 37 38 38 37 37 38 38 38 39 38 37 37 38 38 38 38 38 38 38 38 39 39 39 40 41 42 42 43 44
41 41 42 42 42 42 42 42 41 40 40 39 38 38 37 37 37 37 38 38 38 38 39 39 39 38 38 37 37 37 38 38 39 39 39 38 39 41 42 42 43 43 44
42 42 42 42 43 43 42 42 41 41 40 40 39 38 37 36 37 37 37 37 38 39 39 39 39 39 38 38 38 38 38 38 39 40 40 40 41 42 42 42 43 45 45
42 43 43 43 43 43 43 42 41 41 40 40 39 38 37 37 37 37 37 38 39 39 39 39 39 39 39 38 38 38 39 39 39 40 41 41 41 41 41 42 42 43 44
43 43 43 43 43 43 43 42 41 41 41 40 39 39 39 39 39 39 39 39 39 39 39 39 39 38 38 39 39 39 39 39 38 39 39 39 39 40 40 41 41 41 41
42 42 43 43 43 43 43 43 43 42 41 40 40 40 40 40 40 39 39 39 39 39 39 39 39 39 39 39 39 39 38 38 38 38 37 37 38 39 39 40 41 41 41
41 42 42 42 42 42 42 43 43 43 42 41 41 41 41 40 39 39 39 39 38 38 38 38 39 39 39 39 39 38 38 38 37 37 37 38 38 38 39 40 41 42 42
40 40 41 41 40 41 41 41 42 42 42 41 41 40 40 39 39 39 38 38 37 37 37 38 38 39 40 39 39 39 38 38 38 38 38 38 38 39 40 40 41 42 42
38 38 39 39 39 39 39 39 40 41 41 40 40 39 39 38 38 38 37 37 37 37 37 38 38 38 38 38 38 38 38 38 38 39 39 39 39 40 41 41 41 41 41
38 38 38 39 39 39 39 39 39 39 39 39 38 38 38 38 38 37 37 37 37 38 38 38 38 38 38 38 38 38 38 38 39 39 38 38 39 39 40 40 40 40 40
37 37 37 38 39 39 38 38 38 38 38 38 37 37 37 37 37 37 37 38 38 38 38 38 37 37 37 38 38 38 38 38 38 38 38 38 38 38 38 39 39 39 38
36 36 37 37 37 38 37 37 37 37 36 36 36 36 36 36 37 37 37 37 37 37 37 37 36 36 36 37 37 37 37 37 36 36 37 36 36 37 37 37 37 38 37
35 35 36 36 36 36 35 34 34 34 34 34 34 35 35 35 35 35 35 35 35 36 35 35 35 35 35 35 35 36 36 35 35 36 36 36 36 36 36 36 36 36 36
34 34 34 34 34 34 34 33 33 33 33 33 33 34 34 34 34 34 34 34 34 34 33 33 33 33 33 33 34 34 34 34 34 35 35 36 36 35 35 35 34 34 34
33 33 33 32 32 32 33 33 33 33 33 33 33 33 33 32 33 33 33 33 33 33 32 32 32 32 32 32 32 32 33 33 33 34 34 34 34 34 34 34 33 32 32
31 31 32 32 32 32 32 32 33 33 33 32 32 32 32 31 31 31 31 31 31 32 32 32 31 31 31 31 31 31 31 32 32 32 32 33 32 32 32 32 31 31 31
28 29 30 30 30 31 32 32 32 32 32 32 32 32 31 31 31 30 29 29 29 30 30 31 31 30 31 31 31 31 30 30 30 30 30 30 30 30 30 29 29 29 30
25 26 27 27 28 29 30 30 30 30 31 30 30 29 29 29 29 29 29 29 29 28 29 29 30 30 30 30 29 28 28 28 28 28 28 28 28 28 28 28 27 28 28
23 24 25 26 26 27 27 28 28 28 28 29 29 28 28 29 29 29 29 30 30 29 29 29 29 29 28 28 27 27 27 26 27 27 27 27 26 26 26 26 26 27 28
21 22 23 24 25 25 26 26 26 27 27 27 27 27 27 27 28 28 29 29 29 29 28 27 27 26 26 26 26 27 27 26 26 26 26 26 26 26 26 26 26 26 27
20 20 21 21 23 23 24 24 24 24 25 25 26 25 25 25 26 26 26 26 26 26 25 25 25 25 25 26 26 26 26 26 25 25 25 25 25 25 25 26 26 26 27
19 20 20 20 21 21 22 22 22 22 23 23 23 23 23 23 23 23 23 23 23 23 23 24 25 25 26 26 26 26 25 26 26 25 25 25 25 25 25 26 26 26 27
Wind_Direction
254 254 254 254 254 256 257 258 258 259 259 260 261 261 262 261 260 260 261 262 263 264 265 265 267 268 269 269 268 269 270 270 267 265 265 265 265 265 265 266 266 267 267
254 254 254 254 254 255 256 258 259 260 260 261 262 261 262 261 260 261 262 262 263 264 265 266 268 268 269 268 268 269 270 270 267 266 267 267 267 267 268 268 267 268 269
254 254 254 254 254 255 256 258 258 259 260 261 262 262 261 260 260 260 261 263 264 265 265 266 267 268 268 268 268 269 270 270 269 268 268 268 268 270 270 269 269 270 271
254 254 254 254 254 255 256 257 258 259 259 261 262 262 260 260 260 261 262 263 265 266 266 266 268 268 269 269 269 270 270 270 270 269 269 268 269 270 270 271 272 273 274
254 254 254 253 254 255 256 257 258 259 260 260 261 261 260 260 261 261 262 264 265 265 265 266 268 270 270 270 269 268 268 269 270 271 270 269 269 270 271 273 274 276 277
253 253 253 253 253 254 255 256 258 259 259 260 260 261 261 261 260 261 262 263 264 264 265 266 267 268 269 269 269 269 269 269 270 271 271 270 270 272 273 274 276 277 277
252 252 252 253 253 254 255 256 258 259 260 260 261 260 260 260 261 261 262 263 264 266 266 266 267 268 269 269 269 269 270 271 271 271 271 272 272 273 273 274 277 278 278
252 251 251 252 253 253 254 256 257 259 259 259 260 259 259 260 260 262 262 263 265 267 267 267 268 269 269 270 270 269 269 271 272 272 274 274 274 274 274 276 278 278 278
252 251 251 252 253 253 254 255 256 258 259 258 257 258 259 260 261 262 263 264 265 266 267 267 268 268 269 269 270 270 270 271 272 273 275 275 274 275 276 277 278 279 280
252 252 251 253 253 254 254 255 256 257 257 256 257 258 259 259 261 262 263 265 265 266 266 267 268 269 268 268 269 270 270 271 272 273 274 276 276 276 277 278 279 280 281
252 252 252 253 253 253 254 254 255 255 255 256 257 258 258 259 260 261 262 264 265 265 266 268 268 269 268 267 268 269 270 271 271 272 273 276 278 278 278 279 281 282 282
253 252 252 253 253 253 254 254 254 254 254 255 256 257 258 259 259 260 262 263 265 266 267 268 268 268 268 268 268 269 269 270 270 272 274 276 279 279 279 279 281 283 283
253 252 251 252 252 252 253 253 253 253 253 253 255 256 257 257 259 260 261 262 264 265 267 267 267 268 269 269 268 269 269 269 270 272 275 277 279 280 280 280 281 283 284
253 253 253 253 253 252 253 253 253 253 253 253 254 255 255 257 258 260 261 262 263 264 265 267 268 268 268 268 269 269 269 270 271 274 276 277 279 281 281 282 282 283 285
254 254 254 255 254 252 252 253 253 254 253 253 253 255 255 256 258 259 260 261 262 263 264 266 267 268 268 268 269 269 270 271 273 275 276 277 279 281 283 283 284 285 285
254 254 255 255 254 252 252 253 253 252 252 252 254 255 256 257 257 258 259 260 261 262 264 265 267 268 269 268 269 269 270 272 273 275 276 277 278 281 283 285 285 286 286
254 255 255 254 253 252 251 251 250 250 251 252 254 255 257 258 259 259 260 260 261 262 263 265 267 268 268 268 269 269 270 271 273 275 276 276 278 280 283 285 286 286 286
254 255 255 253 251 250 250 249 249 249 250 253 255 255 257 258 260 261 260 259 260 261 263 265 266 267 268 268 269 269 270 271 273 275 276 277 278 280 282 283 285 286 287
254 253 253 252 251 250 249 249 248 249 251 253 254 256 256 258 260 259 259 259 260 261 263 265 267 268 268 268 269 270 271 272 274 275 277 278 278 280 281 283 284 286 287
253 251 251 250 250 250 249 249 249 250 251 252 254 256 257 257 258 258 259 259 260 261 262 264 266 266 267 268 269 270 271 272 273 274 276 278 278 279 281 283 284 285 287
250 249 249 249 249 249 248 249 249 249 251 252 254 256 257 256 255 256 257 259 260 260 260 262 263 265 266 268 270 271 272 272 273 274 276 278 279 280 281 283 284 286 288
250 249 249 248 248 247 246 247 248 250 249 250 252 253 254 255 255 254 256 258 260 261 262 263 263 264 265 267 269 270 272 272 273 274 276 277 278 279 281 283 284 286 289
250 249 249 248 247 246 246 246 246 247 247 249 251 253 255 255 255 255 256 257 259 261 262 262 263 263 263 264 266 268 270 271 272 273 274 276 278 279 281 282 284 288 291
248 248 248 247 245 244 245 245 244 245 245 247 251 252 254 255 255 256 257 258 260 261 261 261 261 261 262 264 266 267 268 270 271 272 273 275 277 279 281 282 285 288 292
246 247 248 247 245 243 244 244 243 244 245 247 250 252 254 256 256 257 257 257 258 258 259 259 260 261 263 264 265 266 268 269 270 272 273 275 277 278 279 282 285 289 292
245 245 247 247 244 242 242 242 243 244 245 246 248 250 254 256 257 257 257 256 256 256 257 259 260 260 262 264 266 266 267 269 270 272 273 275 277 278 279 282 285 289 292
Height
5642 5644 5646 5648 5649 5651 5652 5654 5655 5656 5657 5658 5659 5660 5660 5661 5662 5663 5663 5664 5665 5666 5666 5666 5666 5666 5666 5665 5665 5665 5665 5664 5664 5665 5665 5665 5665 5665 5665 5665 5665 5666 5666
5631 5633 5635 5637 5638 5640 5641 5643 5644 5645 5646 5647 5648 5649 5650 5650 5651 5652 5653 5654 5655 5655 5656 5656 5656 5656 5656 5655 5655 5655 5654 5654 5653 5654 5654 5654 5654 5654 5653 5653 5653 5653 5653
5619 5621 5623 5625 5627 5629 5630 5632 5633 5634 5635 5636 5637 5638 5639 5640 5641 5642 5643 5644 5644 5645 5645 5646 5646 5646 5646 5645 5645 5644 5644 5643 5643 5643 5643 5643 5643 5643 5642 5642 5641 5641 5641
5607 5609 5612 5614 5616 5617 5619 5620 5621 5623 5624 5625 5626 5627 5627 5629 5630 5631 5632 5633 5634 5634 5635 5635 5635 5635 5635 5635 5635 5634 5634 5633 5633 5632 5633 5633 5632 5631 5631 5630 5630 5630 5629
5596 5598 5600 5602 5604 5605 5607 5609 5610 5611 5613 5613 5615 5615 5616 5618 5619 5620 5621 5622 5623 5624 5624 5625 5625 5625 5625 5625 5624 5624 5624 5623 5623 5622 5622 5622 5621 5621 5620 5619 5619 5618 5617
5584 5586 5588 5590 5592 5594 5596 5597 5599 5600 5601 5603 5604 5605 5606 5607 5608 5609 5610 5611 5612 5613 5613 5614 5614 5614 5614 5614 5614 5613 5613 5613 5612 5612 5611 5611 5610 5609 5609 5607 5606 5606 5605
5572 5574 5576 5578 5580 5582 5584 5586 5587 5589 5590 5591 5593 5594 5595 5596 5598 5599 5599 5600 5601 5602 5603 5603 5603 5603 5603 5603 5603 5602 5602 5601 5601 5601 5600 5600 5599 5598 5597 5596 5594 5593 5592
5560 5562 5564 5566 5568 5570 5572 5574 5576 5577 5579 5580 5581 5583 5584 5586 5587 5588 5588 5589 5590 5591 5591 5592 5592 5592 5591 5591 5591 5591 5591 5590 5590 5589 5589 5588 5587 5585 5585 5584 5582 5581 5579
5547 5549 5551 5554 5556 5558 5560 5562 5564 5566 5567 5569 5570 5572 5573 5575 5576 5576 5577 5578 5579 5580 5580 5580 5580 5580 5581 5580 5580 5580 5580 5579 5578 5578 5577 5575 5574 5574 5573 5572 5570 5569 5567
5535 5537 5539 5541 5544 5546 5548 5550 5552 5554 5555 5557 5559 5560 5562 5563 5564 5565 5566 5566 5567 5568 5569 5569 5569 5569 5569 5568 5568 5568 5568 5568 5567 5567 5566 5564 5564 5562 5561 5560 5558 5556 5554
5522 5524 5527 5529 5531 5533 5535 5537 5539 5541 5543 5546 5547 5549 5550 5552 5553 5554 5554 5555 5556 5556 5557 5557 5557 5558 5557 5557 5557 5557 5557 5557 5556 5556 5555 5554 5553 5551 5550 5548 5546 5544 5542
5510 5512 5514 5516 5519 5521 5523 5525 5527 5529 5531 5533 5535 5537 5539 5540 5541 5542 5543 5544 5545 5545 5546 5546 5546 5546 5546 5546 5546 5546 5546 5546 5545 5545 5544 5543 5542 5540 5539 5537 5535 5533 5530
5499 5501 5503 5505 5507 5509 5511 5512 5514 5516 5519 5521 5523 5525 5527 5529 5530 5531 5532 5533 5533 5534 5534 5534 5534 5534 5534 5534 5534 5534 5534 5534 5534 5533 5533 5532 5530 5529 5527 5525 5523 5521 5518
5488 5489 5491 5493 5495 5497 5499 5501 5503 5505 5507 5509 5511 5513 5515 5517 5518 5520 5521 5522 5522 5523 5523 5523 5523 5522 5522 5522 5522 5523 5522 5522 5522 5522 5521 5520 5519 5517 5515 5513 5511 5509 5507
5476 5478 5480 5481 5483 5485 5487 5489 5491 5493 5495 5498 5500 5501 5503 5505 5507 5508 5509 5510 5511 5512 5511 5511 5511 5511 5511 5511 5511 5511 5511 5511 5511 5511 5510 5509 5508 5506 5504 5502 5500 5497 5495
5465 5467 5469 5470 5472 5473 5476 5478 5480 5482 5484 5486 5488 5490 5492 5494 5495 5496 5497 5499 5499 5500 5500 5500 5500 5500 5500 5500 5500 5500 5500 5500 5500 5500 5499 5498 5497 5495 5493 5491 5489 5487 5484
5454 5456 5457 5459 5461 5462 5465 5467 5469 5472 5473 5476 5478 5479 5481 5483 5484 5485 5486 5487 5488 5488 5489 5489 5490 5490 5489 5489 5489 5489 5490 5489 5489 5489 5488 5487 5486 5485 5483 5481 5479 5476 5474
5443 5445 5446 5448 5450 5452 5454 5457 5459 5462 5464 5466 5468 5469 5471 5472 5473 5474 5475 5476 5477 5478 5479 5479 5479 5479 5479 5479 5479 5479 5479 5479 5479 5478 5478 5477 5475 5474 5473 5471 5469 5467 5464
5433 5434 5436 5438 5440 5442 5444 5447 5449 5452 5454 5456 5458 5459 5460 5462 5463 5464 5464 5466 5467 5468 5468 5469 5469 5469 5469 5469 5469 5469 5469 5469 5469 5468 5467 5466 5465 5464 5462 5461 5459 5457 5455
5422 5424 5426 5428 5430 5432 5435 5437 5439 5442 5444 5446 5448 5449 5451 5452 5453 5454 5455 5456 5457 5458 5458 5459 5460 5460 5460 5460 5459 5459 5459 5459 5459 5458 5458 5456 5455 5454 5453 5451 5449 5448 5446
5413 5414 5416 5419 5421 5423 5425 5427 5429 5432 5434 5436 5438 5439 5440 5442 5443 5445 5446 5447 5448 5448 5449 5449 5450 5450 5450 5450 5450 5450 5450 5450 5449 5449 5448 5447 5446 5445 5443 5442 5441 5439 5437
5404 5406 5408 5410 5412 5414 5416 5418 5420 5422 5424 5426 5428 5429 5431 5432 5434 5435 5436 5438 5438 5439 5439 5440 5440 5441 5441 5441 5441 5441 5441 5441 5440 5440 5439 5438 5437 5436 5435 5434 5432 5431 5429
5396 5398 5399 5401 5403 5405 5407 5409 5411 5413 5415 5417 5419 5421 5422 5423 5425 5426 5427 5428 5429 5430 5430 5431 5431 5432 5432 5432 5432 5433 5433 5432 5432 5431 5431 5430 5429 5428 5427 5426 5424 5423 5421
5388 5390 5392 5394 5395 5397 5399 5401 5403 5405 5407 5409 5410 5412 5413 5415 5416 5417 5418 5419 5420 5421 5421 5422 5423 5423 5424 5424 5424 5424 5424 5424 5424 5423 5423 5422 5421 5420 5419 5418 5417 5415 5413
5382 5383 5385 5387 5388 5390 5392 5394 5396 5398 5400 5401 5403 5404 5405 5406 5408 5408 5409 5410 5411 5412 5413 5414 5415 5415 5415 5416 5416 5416 5416 5416 5416 5415 5415 5414 5413 5413 5412 5410 5409 5407 5405
5375 5377 5379 5380 5382 5384 5386 5387 5389 5391 5393 5394 5395 5397 5398 5399 5400 5400 5401 5402 5403 5404 5405 5406 5406 5407 5408 5408 5408 5408 5408 5408 5408 5407 5407 5406 5406 5405 5404 5403 5401 5400 5398